Jonkoping, Sweden

12:37 AM CEST on March 30, 2017 (GMT +0200)
Jonkoping

Weather History for ESGJ - July, 2013

Change the Weather History Date:

Wednesday, July 3, 2013

  Actual Average Record
Temperature  
Mean Temperature 53 °F -  
Max Temperature 68 °F 69 °F - ()
Min Temperature 38 °F 49 °F - ()
Degree Days  
Heating Degree Days 12    
Growing Degree Days 3 (Base 50)    
Moisture  
Dew Point 47 °F    
Average Humidity 72    
Maximum Humidity 100    
Minimum Humidity 34    
Precipitation  
Precipitation 0.00 in 0.09 in - ()
Sea Level Pressure  
Sea Level Pressure 29.94 in    
Wind  
Wind Speed 5 mph ()    
Max Wind Speed 12 mph    
Max Gust Speed -    
Visibility 7.9 miles    
Events Rain    
T = Trace of Precipitation, MM = Missing Value Source: Averaged Metar Reports

Daily Weather History Graph

Daily Weather History Graph

Search for Another Location

Airport or City:

Trip Planner

Search our weather history database for the weather conditions in past years. The results will help you decide how hot, cold, wet, or windy it might be!

Date:

Astronomy

Jul. 03, 2013 Rise Set
Actual Time 4:09 AM CEST 10:05 PM CEST
Civil Twilight 2:59 AM CEST 11:15 PM CEST
Nautical Twilight 1:40 AM CEST 12:35 AM CEST
Astronomical Twilight Sun does not rise Sun does not rise
Moon 1:13 AM CEST (7/3) 5:31 PM CEST (7/3)
Length of Visible Light 20h 16m
Length of Day
17h 55m
Waning Crescent, 20% of the Moon is Illuminated
Jul 3
Waning Crescent
Jul 8
New
Jul 16
First Quarter
Jul 22
Full
Jul 29
Last Quarter

Hourly Weather History & Observations

Time (CEST) Temp. Windchill Dew Point Humidity Pressure Visibility Wind Dir Wind Speed Gust Speed Precip Events Conditions
12:00 AM 43 °F - 42 °F 94% 29.94 in 31 mi SSW 4.5 mph - -  
12:20 AM 44.6 °F 43.1 °F 44.6 °F 100% 29.92 in - SSW 3.5 mph - N/A   Clear
12:50 AM 42.8 °F 40.1 °F 42.8 °F 100% 29.92 in - SW 4.6 mph - N/A   Clear
1:00 AM 44 °F - 44 °F 97% 29.94 in 31 mi SW 2.2 mph - -  
1:20 AM 44.6 °F 42.2 °F 42.8 °F 93% 29.92 in - South 4.6 mph - N/A   Clear
1:50 AM 41.0 °F 39.0 °F 41.0 °F 100% 29.92 in - SSW 3.5 mph - N/A   Clear
2:00 AM 42 °F - 41 °F 95% 29.95 in 19 mi SSW 2.2 mph - -  
2:20 AM 41.0 °F 39.0 °F 39.2 °F 93% 29.92 in - South 3.5 mph - N/A   Clear
2:50 AM 39.2 °F 37.0 °F 39.2 °F 100% 29.92 in - South 3.5 mph - N/A   Clear
3:00 AM 39 °F - 39 °F 98% 29.95 in 31 mi South 2.2 mph - -  
3:20 AM 41.0 °F 39.0 °F 39.2 °F 93% 29.92 in 1.5 mi South 3.5 mph - N/A   Unknown
3:50 AM 39.2 °F 35.9 °F 39.2 °F 100% 29.92 in 0.3 mi South 4.6 mph - N/A   Unknown
4:00 AM 38 °F - 38 °F 100% 29.96 in 31 mi South 2.2 mph - -  
4:20 AM 39.2 °F 37.0 °F 39.2 °F 100% 29.92 in 6.2 mi South 3.5 mph - N/A   Unknown
4:50 AM 42.8 °F 41.1 °F 42.8 °F 100% 29.92 in 6.2 mi SSW 3.5 mph - N/A   Unknown
5:20 AM 44.6 °F 41.4 °F 44.6 °F 100% 29.92 in 6.2 mi South 5.8 mph - N/A   Unknown
5:50 AM 46.4 °F 42.9 °F 46.4 °F 100% 29.92 in 6.2 mi South 6.9 mph - N/A   Unknown
6:00 AM 48 °F - 46 °F 90% 29.95 in 25 mi South 6.7 mph - -   Mostly Cloudy
6:20 AM 48.2 °F - 46.4 °F 93% 29.92 in - South 6.9 mph - N/A   Clear
6:50 AM 48.2 °F - 46.4 °F 93% 29.92 in - South 4.6 mph - N/A   Clear
7:00 AM 49 °F - 47 °F 89% 29.94 in 28 mi South 2.2 mph - -   Scattered Clouds
7:20 AM 50.0 °F - 46.4 °F 87% 29.92 in - South 3.5 mph - N/A   Clear
7:50 AM 51.8 °F - 48.2 °F 88% 29.92 in - South 3.5 mph - N/A   Clear
8:00 AM 52 °F - 47 °F 77% 29.94 in 28 mi South 4.5 mph - -   Partly Cloudy
8:20 AM 53.6 °F - 46.4 °F 77% 29.92 in - South 5.8 mph - N/A   Clear
8:50 AM 55.4 °F - 46.4 °F 72% 29.95 in - SSE 6.9 mph - N/A   Clear
9:00 AM 56 °F - 48 °F 66% 29.95 in 28 mi South 6.7 mph - -   Overcast
9:20 AM 59.0 °F - 48.2 °F 67% 29.95 in - South 8.1 mph - N/A   Clear
9:50 AM 59.0 °F - 48.2 °F 67% 29.95 in - South 9.2 mph - N/A   Clear
10:00 AM 58 °F - 47 °F 58% 29.95 in 25 mi South 8.9 mph - -   Mostly Cloudy
10:20 AM 59.0 °F - 46.4 °F 63% 29.95 in - South 9.2 mph - N/A   Clear
10:50 AM 59.0 °F - 44.6 °F 59% 29.95 in 6.2 mi South 9.2 mph - N/A   Partly Cloudy
11:20 AM 60.8 °F - 42.8 °F 52% 29.95 in 6.2 mi South 8.1 mph - N/A   Partly Cloudy
11:50 AM 62.6 °F - 44.6 °F 52% 29.95 in 6.2 mi SE 6.9 mph - N/A   Partly Cloudy
12:00 PM 62 °F - 45 °F 43% 29.94 in 19 mi SSE 8.9 mph - -   Partly Cloudy
12:20 PM 64.4 °F - 46.4 °F 52% 29.95 in 6.2 mi SE 8.1 mph - N/A   Partly Cloudy
12:50 PM 64.4 °F - 46.4 °F 52% 29.95 in 6.2 mi SE 10.4 mph - N/A   Partly Cloudy
1:00 PM 64 °F - 46 °F 40% 29.94 in 22 mi SSE 8.9 mph - -   Partly Cloudy
1:20 PM 66.2 °F - 46.4 °F 49% 29.95 in 6.2 mi South 6.9 mph - N/A   Partly Cloudy
1:50 PM 66.2 °F - 44.6 °F 46% 29.95 in 6.2 mi South 5.8 mph - N/A   Partly Cloudy
2:00 PM 66 °F - 46 °F 38% 29.93 in 25 mi SSE 6.7 mph - -   Mostly Cloudy
2:20 PM 66.2 °F - 44.6 °F 46% 29.92 in 6.2 mi Variable 4.6 mph - N/A   Partly Cloudy
2:50 PM 66.2 °F - 46.4 °F 49% 29.95 in - South 8.1 mph - N/A   Clear
3:00 PM 68 °F - 46 °F 34% 29.92 in 19 mi SE 8.9 mph - -   Scattered Clouds
3:20 PM 68.0 °F - 46.4 °F 46% 29.95 in - South 9.2 mph - N/A   Clear
3:50 PM 66.2 °F - 46.4 °F 49% 29.95 in - SE 9.2 mph - N/A   Clear
4:20 PM 66.2 °F - 48.2 °F 52% 29.95 in - SSE 10.4 mph - N/A   Clear
4:50 PM 66.2 °F - 46.4 °F 49% 29.95 in - South 10.4 mph - N/A   Clear
5:20 PM 66.2 °F - 48.2 °F 52% 29.95 in - South 9.2 mph - N/A   Clear
5:50 PM 66.2 °F - 48.2 °F 52% 29.95 in - SSE 8.1 mph - N/A   Clear
6:00 PM 66 °F - 49 °F 43% 29.94 in 28 mi South 11.2 mph - -   Overcast
6:20 PM 66.2 °F - 50.0 °F 56% 29.95 in - SSE 11.5 mph - N/A   Clear
6:50 PM 66.2 °F - 50.0 °F 56% 29.95 in - South 8.1 mph - N/A   Clear
7:00 PM 65 °F - 49 °F 46% 29.94 in 25 mi South 11.2 mph - -   Mostly Cloudy
7:20 PM 64.4 °F - 50.0 °F 59% 29.95 in - South 11.5 mph - N/A   Clear
7:50 PM 62.6 °F - 51.8 °F 68% 29.95 in - South 5.8 mph - N/A   Clear
8:00 PM 62 °F - 53 °F 63% 29.94 in 19 mi SSE 6.7 mph - - Rain Light Rain Showers
8:20 PM 62.6 °F - 53.6 °F 72% 29.95 in 6.2 mi SE 4.6 mph - N/A Rain Light Rain
8:50 PM 60.8 °F - 53.6 °F 77% 29.95 in 6.2 mi SE 4.6 mph - N/A Rain Light Rain
9:00 PM 61 °F - 54 °F 71% 29.95 in 22 mi SE 4.5 mph - - Rain Light Rain Showers
9:20 PM 60.8 °F - 53.6 °F 77% 29.95 in 6.2 mi SE 5.8 mph - N/A   Light Drizzle
9:50 PM 60.8 °F - 53.6 °F 77% 29.95 in - SE 5.8 mph - N/A   Clear
10:00 PM 61 °F - 54 °F 71% 29.96 in 22 mi SE 4.5 mph - - Rain Rain
10:20 PM 60.8 °F - 53.6 °F 77% 29.98 in - SE 4.6 mph - N/A   Clear
10:50 PM 60.8 °F - 53.6 °F 77% 29.98 in 6.2 mi SE 8.1 mph - N/A   Drizzle
11:20 PM 60.8 °F - 51.8 °F 72% 29.98 in 6.2 mi SE 8.1 mph - N/A   Light Drizzle
11:50 PM 59.0 °F - 51.8 °F 77% 29.98 in 6.2 mi SE 6.9 mph - N/A   Light Drizzle